Idabel, OK

3:25 AM CDT on September 27, 2016 (GMT -0500)
Idabel

Weather History for K4O4 - January, 2013

Change the Weather History Date:

Friday, January 4, 2013

  Actual Average (KDEQ) Record (KDEQ)
Temperature  
Mean Temperature 40 °F 42 °F  
Max Temperature 51 °F 53 °F 76 °F (1955)
Min Temperature 28 °F 30 °F 8 °F (1947)
Degree Days  
Heating Degree Days 26 23  
Month to date heating degree days 92  
Since 1 July heating degree days 1301  
Cooling Degree Days 0 0  
Month to date cooling degree days 0  
Year to date cooling degree days 0  
Moisture  
Dew Point 25 °F    
Average Humidity 57    
Maximum Humidity 93    
Minimum Humidity 26    
Precipitation  
Precipitation 0.00 in 0.11 in 2.92 in (1993)
Month to date precipitation 0.45  
Year to date precipitation 0.45  
Snow  
Snow 0.00 in - - ()
Month to date snowfall  
Since 1 July snowfall  
Snow Depth -    
Sea Level Pressure  
Sea Level Pressure 30.44 in    
Wind  
Wind Speed 1 mph (WSW)    
Max Wind Speed 5 mph    
Max Gust Speed -    
Visibility 10 miles    
Events      
T = Trace of Precipitation, MM = Missing Value Source: NWS Daily Summary

Daily Weather History Graph

Daily Weather History Graph

Search for Another Location

Airport or City:

Trip Planner

Search our weather history database for the weather conditions in past years. The results will help you decide how hot, cold, wet, or windy it might be!

Date:

Astronomy

Jan. 04, 2013 Rise Set
Actual Time 7:25 AM CST 5:24 PM CST
Civil Twilight 6:57 AM CST 5:51 PM CST
Nautical Twilight 6:26 AM CST 6:22 PM CST
Astronomical Twilight 5:56 AM CST 6:53 PM CST
Moon No Moon Rise 11:29 AM CST (1/4)
Length of Visible Light 10h 54m
Length of Day
9h 58m
Waning Gibbous, 55% of the Moon is Illuminated
Jan 4
Waning Gibbous
Jan 4
Last Quarter
Jan 11
New
Jan 18
First Quarter
Jan 26
Full

Hourly Weather History & Observations

Time (CST) Temp. Windchill Dew Point Humidity Pressure Visibility Wind Dir Wind Speed Gust Speed Precip Events Conditions
12:17 AM 33.8 °F 30.8 °F 26.6 °F 75% 30.45 in 10.0 mi North 3.5 mph - N/A   Clear
12:37 AM 35.6 °F - 26.6 °F 70% 30.45 in 10.0 mi Calm Calm - N/A   Clear
12:57 AM 35.6 °F - 26.6 °F 70% 30.45 in 10.0 mi Calm Calm - N/A   Clear
1:17 AM 35.6 °F - 26.6 °F 70% 30.45 in 10.0 mi Calm Calm - N/A   Clear
1:57 AM 35.6 °F - 28.4 °F 75% 30.43 in 10.0 mi Calm Calm - N/A   Clear
2:37 AM 33.8 °F - 26.6 °F 75% 30.44 in 10.0 mi Calm Calm - N/A   Clear
3:15 AM 32.0 °F - 28.4 °F 87% 30.44 in 10.0 mi Calm Calm - N/A   Clear
3:17 AM 33.8 °F - 26.6 °F 75% 30.44 in 10.0 mi Calm Calm - N/A   Clear
5:37 AM 28.4 °F - 26.6 °F 93% 30.48 in 10.0 mi Calm Calm - N/A   Clear
5:57 AM 28.4 °F - 26.6 °F 93% 30.48 in 10.0 mi Calm Calm - N/A   Clear
6:37 AM 30.2 °F - 26.6 °F 86% 30.48 in 10.0 mi Calm Calm - N/A   Clear
7:17 AM 30.2 °F - 26.6 °F 86% 30.49 in 10.0 mi Calm Calm - N/A   Clear
7:35 AM 32.0 °F - 28.4 °F 87% 30.49 in 10.0 mi Calm Calm - N/A   Clear
7:55 AM 32.0 °F - 28.4 °F 87% 30.49 in 10.0 mi Calm Calm - N/A   Clear
8:15 AM 32.0 °F - 28.4 °F 87% 30.50 in 10.0 mi Calm Calm - N/A   Clear
8:55 AM 33.8 °F 30.8 °F 32.0 °F 93% 30.51 in 10.0 mi SSW 3.5 mph - N/A   Clear
8:57 AM 33.8 °F - 30.2 °F 87% 30.51 in 10.0 mi Calm Calm - N/A   Clear
9:15 AM 37.4 °F - 32.0 °F 81% 30.51 in 10.0 mi Calm Calm - N/A   Clear
9:35 AM 41.0 °F 39.0 °F 32.0 °F 70% 30.51 in 10.0 mi ESE 3.5 mph - N/A   Clear
9:55 AM 42.8 °F 41.1 °F 28.4 °F 57% 30.52 in 10.0 mi East 3.5 mph - N/A   Clear
10:15 AM 44.6 °F 43.1 °F 28.4 °F 53% 30.52 in 10.0 mi NE 3.5 mph - N/A   Clear
10:35 AM 46.4 °F - 26.6 °F 46% 30.52 in 10.0 mi Calm Calm - N/A   Clear
10:55 AM 46.4 °F - 26.6 °F 46% 30.51 in 10.0 mi Calm Calm - N/A   Scattered Clouds
11:15 AM 46.4 °F 44.3 °F 24.8 °F 43% 30.50 in 10.0 mi NE 4.6 mph - N/A   Clear
11:35 AM 46.4 °F - 23.0 °F 40% 30.50 in 10.0 mi Calm Calm - N/A   Clear
11:55 AM 46.4 °F - 23.0 °F 40% 30.49 in 10.0 mi Calm Calm - N/A   Clear
12:15 PM 50.0 °F - 19.4 °F 30% 30.48 in 10.0 mi Calm Calm - N/A   Clear
12:35 PM 50.0 °F - 21.2 °F 32% 30.46 in 10.0 mi Calm Calm - N/A   Clear
12:55 PM 51.8 °F - 17.6 °F 26% 30.45 in 10.0 mi Calm Calm - N/A   Clear
1:15 PM 51.8 °F - 19.4 °F 28% 30.44 in 10.0 mi WSW 4.6 mph - N/A   Clear
1:35 PM 50.0 °F - 19.4 °F 30% 30.43 in 10.0 mi Calm Calm - N/A   Clear
1:55 PM 51.8 °F - 19.4 °F 28% 30.42 in 10.0 mi Calm Calm - N/A   Scattered Clouds
2:15 PM 51.8 °F - 17.6 °F 26% 30.41 in 10.0 mi WSW 3.5 mph - N/A   Scattered Clouds
2:35 PM 51.8 °F - 17.6 °F 26% 30.41 in 10.0 mi WNW 3.5 mph - N/A   Scattered Clouds
2:55 PM 50.0 °F - 17.6 °F 28% 30.41 in 10.0 mi WNW 3.5 mph - N/A   Scattered Clouds
3:15 PM 50.0 °F - 17.6 °F 28% 30.40 in 10.0 mi West 4.6 mph - N/A   Scattered Clouds
3:35 PM 50.0 °F - 19.4 °F 30% 30.41 in 10.0 mi Calm Calm - N/A   Mostly Cloudy
3:55 PM 50.0 °F - 21.2 °F 32% 30.40 in 10.0 mi NNW 4.6 mph - N/A   Mostly Cloudy
4:15 PM 48.2 °F - 21.2 °F 34% 30.40 in 10.0 mi WSW 4.6 mph - N/A   Overcast
4:55 PM 46.4 °F - 21.2 °F 37% 30.40 in 10.0 mi Calm Calm - N/A   Overcast
5:15 PM 46.4 °F 45.2 °F 21.2 °F 37% 30.39 in 10.0 mi West 3.5 mph - N/A   Overcast
5:35 PM 44.6 °F 42.2 °F 21.2 °F 39% 30.41 in 10.0 mi SW 4.6 mph - N/A   Overcast
5:55 PM 44.6 °F - 23.0 °F 43% 30.40 in 10.0 mi Calm Calm - N/A   Overcast
6:15 PM 42.8 °F - 23.0 °F 46% 30.39 in 10.0 mi Calm Calm - N/A   Scattered Clouds
6:35 PM 41.0 °F - 21.2 °F 45% 30.40 in 10.0 mi Calm Calm - N/A   Clear
7:15 PM 39.2 °F - 24.8 °F 56% 30.40 in 10.0 mi Calm Calm - N/A   Clear
7:35 PM 37.4 °F - 24.8 °F 60% 30.41 in 10.0 mi Calm Calm - N/A   Clear
7:55 PM 37.4 °F 34.9 °F 26.6 °F 65% 30.41 in 10.0 mi SSW 3.5 mph - N/A   Scattered Clouds
8:15 PM 37.4 °F - 26.6 °F 65% 30.41 in 10.0 mi Calm Calm - N/A   Scattered Clouds
8:35 PM 37.4 °F - 26.6 °F 65% 30.41 in 10.0 mi Calm Calm - N/A   Clear
8:55 PM 37.4 °F - 26.6 °F 65% 30.40 in 10.0 mi Calm Calm - N/A   Clear
9:15 PM 39.2 °F - 23.0 °F 52% 30.39 in 10.0 mi Calm Calm - N/A   Clear
9:35 PM 41.0 °F - 21.2 °F 45% 30.39 in 10.0 mi Calm Calm - N/A   Clear
9:55 PM 39.2 °F - 26.6 °F 61% 30.40 in 10.0 mi Calm Calm - N/A   Clear
10:15 PM 39.2 °F 37.0 °F 26.6 °F 61% 30.40 in 10.0 mi SE 3.5 mph - N/A   Scattered Clouds
10:35 PM 41.0 °F - 26.6 °F 57% 30.39 in 10.0 mi Calm Calm - N/A   Mostly Cloudy
10:55 PM 39.2 °F - 30.2 °F 70% 30.39 in 10.0 mi Calm Calm - N/A   Overcast
11:15 PM 41.0 °F - 28.4 °F 61% 30.39 in 10.0 mi Calm Calm - N/A   Mostly Cloudy
11:35 PM 39.2 °F 37.0 °F 28.4 °F 65% 30.37 in 10.0 mi ESE 3.5 mph - N/A   Mostly Cloudy
11:55 PM 41.0 °F 39.0 °F 28.4 °F 61% 30.37 in 10.0 mi ESE 3.5 mph - N/A   Mostly Cloudy